When you browse on this site, cookies collect data to enhance your experience and personalize the content and advertising you see.
Visit our Privacy Policy to learn more. By continuing to use the site, you agree to this use of cookies and data.
  • In Latvia
  • List of Countries
  • For 7 days
  • Water Temperature
  • Weather Map
  • Weather Widgets
  • user-avatar
    Login

    Hourly Weather Veszprem

    Today, 26 January, Sunday

    Time Temperature Precipitation Wind Pressure Humidity
    00:00 0°C° 0 mm 1 mps 744 mmHg 89%
    01:00 0°C° 0 mm 1 mps 744 mmHg 89%
    02:00 0°C° 0 mm 1 mps 744 mmHg 89%
    03:00 +1°C° 0 mm 1 mps 744 mmHg 88%
    04:00 +1°C° 0 mm 1 mps 743 mmHg 88%
    05:00 +1°C° 0 mm 1 mps 743 mmHg 88%
    06:00 +1°C° 0 mm 1 mps 743 mmHg 89%
    07:00 +1°C° 0 mm 1 mps 743 mmHg 89%
    08:00 +2°C° 0 mm 1 mps 744 mmHg 88%
    09:00 +2°C° 0 mm 1 mps 744 mmHg 87%
    10:00 +3°C° 0 mm 1 mps 744 mmHg 86%
    11:00 +3°C° 0 mm 1 mps 744 mmHg 86%
    12:00 +3°C° 0 mm 1 mps 743 mmHg 85%
    13:00 +4°C° 0 mm 1 mps 743 mmHg 85%
    14:00 +3°C° 0 mm 1 mps 743 mmHg 86%
    15:00 +3°C° 0 mm 1 mps 742 mmHg 87%
    16:00 +2°C° 0 mm 2 mps 742 mmHg 87%
    17:00 +2°C° 0 mm 2 mps 742 mmHg 88%
    18:00 +3°C° 0 mm 1 mps 742 mmHg 88%
    19:00 +2°C° 0 mm 1 mps 742 mmHg 88%
    20:00 +2°C° 0 mm 1 mps 742 mmHg 89%
    21:00 +2°C° 0 mm 1 mps 742 mmHg 89%
    22:00 +2°C° 0 mm 1 mps 742 mmHg 89%
    23:00 +2°C° 0 mm 1 mps 742 mmHg 89%

    Tomorrow, 27 January, Monday

    Time Temperature Precipitation Wind Pressure Humidity
    00:00 +2°C° 0 mm 1 mps 742 mmHg 89%
    01:00 +2°C° 0 mm 1 mps 742 mmHg 89%
    02:00 +2°C° 0 mm 1 mps 741 mmHg 90%
    03:00 +2°C° 0 mm 1 mps 741 mmHg 90%
    04:00 +2°C° 0 mm 1 mps 741 mmHg 91%
    05:00 +2°C° 0 mm 1 mps 741 mmHg 92%
    06:00 +1°C° 0 mm 0 mps 741 mmHg 93%
    07:00 +1°C° 0 mm 0 mps 741 mmHg 94%
    08:00 +2°C° 0 mm 0 mps 741 mmHg 91%
    09:00 +4°C° 0 mm 1 mps 741 mmHg 88%
    10:00 +4°C° 0 mm 1 mps 742 mmHg 86%
    11:00 +5°C° 0 mm 1 mps 741 mmHg 82%
    12:00 +6°C° 0 mm 1 mps 741 mmHg 79%
    13:00 +6°C° 0 mm 2 mps 741 mmHg 75%
    14:00 +6°C° 0 mm 2 mps 740 mmHg 77%
    15:00 +6°C° 0 mm 1 mps 740 mmHg 80%
    16:00 +6°C° 0 mm 1 mps 740 mmHg 82%
    17:00 +5°C° 0 mm 1 mps 740 mmHg 84%
    18:00 +5°C° 0 mm 1 mps 739 mmHg 87%
    19:00 +4°C° 0 mm 1 mps 739 mmHg 89%
    20:00 +3°C° 0 mm 2 mps 739 mmHg 90%
    21:00 +3°C° 0 mm 2 mps 739 mmHg 90%
    22:00 +3°C° 0 mm 2 mps 739 mmHg 91%
    23:00 +3°C° 0 mm 2 mps 738 mmHg 92%

    Day after tomorrow, 28 January, Tuesday

    Time Temperature Precipitation Wind Pressure Humidity
    00:00 +1°C° 0 mm 3 mps 737 mmHg 93%
    01:00 +1°C° 0 mm 3 mps 737 mmHg 94%
    02:00 0°C° 0 mm 4 mps 736 mmHg 93%
    03:00 +1°C° 0 mm 4 mps 735 mmHg 92%
    04:00 +1°C° 0 mm 5 mps 734 mmHg 92%
    05:00 +1°C° 0 mm 5 mps 734 mmHg 90%
    06:00 +2°C° 0 mm 5 mps 733 mmHg 88%
    07:00 +2°C° 0 mm 6 mps 733 mmHg 86%
    08:00 +3°C° 0.1 mm 7 mps 732 mmHg 84%
    09:00 +4°C° 0.1 mm 7 mps 732 mmHg 82%
    10:00 +5°C° 0.1 mm 8 mps 731 mmHg 80%
    11:00 +5°C° 0 mm 8 mps 731 mmHg 79%
    12:00 +6°C° 0 mm 8 mps 730 mmHg 77%
    13:00 +7°C° 0 mm 8 mps 730 mmHg 76%
    14:00 +8°C° 0.3 mm 7 mps 729 mmHg 79%
    15:00 +7°C° 0.3 mm 6 mps 728 mmHg 82%
    16:00 +7°C° 0.3 mm 6 mps 728 mmHg 86%
    17:00 +6°C° 3.4 mm 5 mps 728 mmHg 89%
    18:00 +5°C° 3.4 mm 5 mps 727 mmHg 91%
    19:00 +3°C° 3.4 mm 5 mps 727 mmHg 94%
    20:00 +3°C° 3.1 mm 6 mps 727 mmHg 90%
    21:00 +1°C° 3.1 mm 8 mps 727 mmHg 85%
    22:00 +1°C° 3.1 mm 9 mps 727 mmHg 81%
    23:00 +1°C° 0 mm 9 mps 728 mmHg 77%

    29 January, Wednesday

    Time Temperature Precipitation Wind Pressure Humidity
    00:00 0°C° 0 mm 8 mps 728 mmHg 72%
    01:00 0°C° 0 mm 8 mps 729 mmHg 68%
    02:00 0°C° 0 mm 7 mps 730 mmHg 70%
    03:00 -1°C° 0 mm 6 mps 730 mmHg 72%
    04:00 0°C° 0 mm 5 mps 731 mmHg 74%
    05:00 0°C° 0 mm 4 mps 731 mmHg 78%
    06:00 -1°C° 0 mm 4 mps 731 mmHg 81%
    07:00 -1°C° 0 mm 4 mps 731 mmHg 85%
    08:00 0°C° 0 mm 4 mps 731 mmHg 80%
    09:00 +1°C° 0 mm 5 mps 731 mmHg 75%
    10:00 +2°C° 0 mm 5 mps 731 mmHg 70%
    11:00 +4°C° 0 mm 4 mps 731 mmHg 68%
    12:00 +4°C° 0 mm 4 mps 731 mmHg 67%
    13:00 +4°C° 0 mm 4 mps 731 mmHg 66%
    14:00 +3°C° 0.2 mm 4 mps 731 mmHg 73%
    15:00 +1°C° 0.2 mm 4 mps 732 mmHg 80%
    16:00 0°C° 0.2 mm 4 mps 732 mmHg 88%
    17:00 0°C° 0 mm 4 mps 733 mmHg 83%
    18:00 0°C° 0 mm 4 mps 733 mmHg 78%
    19:00 0°C° 0 mm 5 mps 734 mmHg 73%
    20:00 0°C° 0 mm 4 mps 734 mmHg 74%
    21:00 -1°C° 0 mm 4 mps 735 mmHg 74%
    22:00 -1°C° 0 mm 4 mps 735 mmHg 74%
    23:00 -1°C° 0 mm 4 mps 736 mmHg 72%

    30 January, Thursday

    Time Temperature Precipitation Wind Pressure Humidity
    00:00 -1°C° 0 mm 4 mps 736 mmHg 71%
    01:00 -1°C° 0 mm 4 mps 736 mmHg 70%
    02:00 -1°C° 0 mm 4 mps 737 mmHg 68%
    03:00 -1°C° 0 mm 4 mps 737 mmHg 67%
    04:00 -1°C° 0 mm 4 mps 737 mmHg 65%
    05:00 -1°C° 0 mm 4 mps 738 mmHg 67%
    06:00 -1°C° 0 mm 4 mps 738 mmHg 69%
    07:00 -2°C° 0 mm 4 mps 739 mmHg 70%
    08:00 -1°C° 0 mm 4 mps 739 mmHg 68%
    09:00 0°C° 0 mm 5 mps 740 mmHg 66%
    10:00 +1°C° 0 mm 6 mps 740 mmHg 64%
    11:00 +1°C° 0 mm 6 mps 740 mmHg 61%
    12:00 +2°C° 0 mm 6 mps 740 mmHg 59%
    13:00 +3°C° 0 mm 6 mps 740 mmHg 57%
    14:00 +2°C° 0 mm 5 mps 740 mmHg 60%
    15:00 +3°C° 0 mm 4 mps 740 mmHg 63%
    16:00 +3°C° 0 mm 3 mps 740 mmHg 66%
    17:00 +2°C° 0 mm 3 mps 741 mmHg 67%
    18:00 +1°C° 0 mm 3 mps 741 mmHg 69%
    19:00 0°C° 0 mm 3 mps 741 mmHg 71%
    20:00 +1°C° 0 mm 2 mps 741 mmHg 73%
    21:00 +1°C° 0 mm 2 mps 742 mmHg 76%
    22:00 +1°C° 0 mm 2 mps 742 mmHg 78%
    23:00 +1°C° 0 mm 2 mps 742 mmHg 78%

    31 January, Friday

    Time Temperature Precipitation Wind Pressure Humidity
    00:00 +2°C° 0 mm 1 mps 742 mmHg 78%
    01:00 +2°C° 0 mm 1 mps 741 mmHg 78%
    02:00 +2°C° 0 mm 1 mps 741 mmHg 78%
    03:00 +2°C° 0 mm 1 mps 741 mmHg 77%
    04:00 +2°C° 0 mm 1 mps 741 mmHg 77%
    05:00 +2°C° 0 mm 1 mps 741 mmHg 77%
    06:00 +2°C° 0 mm 1 mps 741 mmHg 78%
    07:00 +2°C° 0 mm 1 mps 741 mmHg 78%
    08:00 +2°C° 0 mm 1 mps 741 mmHg 76%
    09:00 +3°C° 0 mm 1 mps 741 mmHg 73%
    10:00 +4°C° 0 mm 1 mps 742 mmHg 70%
    11:00 +5°C° 0 mm 1 mps 741 mmHg 67%
    12:00 +5°C° 0 mm 1 mps 741 mmHg 64%
    13:00 +6°C° 0 mm 1 mps 741 mmHg 61%
    14:00 +6°C° 0 mm 1 mps 741 mmHg 64%
    15:00 +5°C° 0 mm 1 mps 741 mmHg 67%
    16:00 +5°C° 0 mm 1 mps 741 mmHg 70%
    17:00 +4°C° 0 mm 1 mps 741 mmHg 71%
    18:00 +4°C° 0 mm 1 mps 741 mmHg 71%
    19:00 +3°C° 0 mm 1 mps 741 mmHg 72%
    20:00 +3°C° 0 mm 1 mps 741 mmHg 70%
    21:00 +3°C° 0 mm 1 mps 741 mmHg 69%
    22:00 +3°C° 0 mm 1 mps 741 mmHg 67%
    23:00 +3°C° 0 mm 1 mps 741 mmHg 68%
    Show more